Location: Unspecified
(38.0989°N, 0.6729°W)
Time: 13:47:15
(UTC+02:00)

Envisat - Visible Passes

Search period start: 23 April 2017 00:00
Search period end: 03 May 2017 00:00
Orbit: 764 x 766 km, 98.2° (Epoch: 21 April)

Date Brightness Start Highest point End Pass type
(mag) Time Alt. Az. Time Alt. Az. Time Alt. Az.
23 Apr 2.9 22:02:11 13° SSE 22:06:41 77° ENE 22:11:46 10° N visible
23 Apr 5.7 23:45:09 10° WSW 23:46:13 11° W 23:47:18 10° WNW visible
24 Apr 3.8 21:25:38 10° SE 21:30:09 34° ENE 21:34:42 10° N visible
24 Apr 4.9 23:05:10 11° SSW 23:09:10 26° W 23:13:21 10° NW visible
25 Apr 3.5 22:27:58 14° S 22:32:18 59° W 22:37:21 10° NNW visible
26 Apr 3.1 21:50:46 11° SSE 21:55:38 60° ENE 22:00:39 10° N visible
26 Apr 5.5 23:32:23 10° WSW 23:35:02 14° W 23:37:40 10° WNW visible
27 Apr 4.1 21:14:58 10° SE 21:19:10 27° ENE 21:23:23 10° NNE visible
27 Apr 4.5 22:53:45 11° SSW 22:58:02 32° W 23:02:35 10° NNW visible
28 Apr 3.1 22:16:33 12° S 22:21:14 76° WSW 22:26:20 10° NNW visible
29 Apr 3.3 21:39:47 10° SE 21:44:37 47° ENE 21:49:29 10° N visible
29 Apr 5.3 23:20:24 10° SW 23:23:50 18° W 23:27:18 10° NW visible
30 Apr 4.1 22:42:20 11° SSW 22:46:54 41° W 22:51:43 10° NNW visible
01 May 2.9 22:05:08 10° SSE 22:10:10 85° ENE 22:15:16 10° NNW visible
02 May 3.7 21:28:59 10° SE 21:33:36 37° ENE 21:38:15 10° N visible
02 May 5.0 23:08:41 10° SSW 23:12:41 23° W 23:16:42 10° NW visible
